User: anonymous   Login
Location: D?uga
(50.2667°N, 19.7833°E)
Time: 16:57:24
(UTC+00:00)
Language:

Cosmos 2360 Rocket - Orbit

View from above orbital plane
View from above orbital plane
View from above satellite
View from above satellite

Ground track
Ground track

The orbit data is extracted from the following two-line orbital elements,

1 25407U 98045B   24201.84725014  .00000120  00000-0  85213-4 0  9990
2 25407  71.0123 358.6831 0008965 227.8667 132.1695 14.16013539342463
Epoch (UTC): 19 July 2024 20:20:02
Eccentricity: 0.0008965
inclination: 71.0123°
perigee height: 832 km
apogee height: 845 km
right ascension of ascending node: 358.6831°
argument of perigee: 227.8667°
revolutions per day: 14.16013539
mean anomaly at epoch: 132.1695°
orbit number at epoch: 34246

The dashed part of the orbit path shows where the satellite is in the earth's shadow,  

DLR